Simultaneous Nadir Overpasses (SNOs) Predictions

Prediction of SNOs between FY3D and NOAA-19 Satellite Orbit:

Table of predicted SNOs for the next 14.0 days since TLE Epoch: 6/22/2024
Index Date (FY3D) Time (FY3D) Lat,Lon (FY3D) SZA (FY3D ) Date (NOAA-19) Time (NOAA-19) Lat,Lon (NOAA-19) SZA (NOAA-19 ) Distance(km) Time Diff (sec)
1 07/03/2024 02:41:34 75.53, 140.66 52.52 07/03/2024 02:40:29 75.52, 137.16 52.55 97.24 65
2 07/03/2024 03:32:30 -76.03, -53.71 126.97 07/03/2024 03:31:15 -76.02, -53.86 126.98 4.30 75
3 07/03/2024 04:23:16 76.05, 113.53 53.06 07/03/2024 04:22:15 76.06, 113.53 53.07 1.15 61
4 07/03/2024 05:14:01 -76.04, -79.14 126.95 07/03/2024 05:13:12 -76.06, -79.21 126.93 2.40 49
5 07/03/2024 06:04:47 76.06, 88.10 53.08 07/03/2024 06:04:13 76.05, 88.03 53.07 2.13 34
6 07/03/2024 06:55:32 -76.06,-104.57 126.93 07/03/2024 06:55:10 -76.05,-104.71 126.93 3.94 22
7 07/03/2024 07:46:18 76.08, 62.68 53.10 07/03/2024 07:46:10 76.10, 62.69 53.12 2.08 8
8 07/03/2024 08:37:03 -76.07,-129.99 126.91 07/03/2024 08:37:07 -76.09,-130.06 126.88 2.84 4
9 07/03/2024 09:27:49 76.09, 37.25 53.12 07/03/2024 09:28:08 76.09, 37.19 53.12 1.61 19
10 07/03/2024 10:18:34 -76.09,-155.42 126.88 07/03/2024 10:19:05 -76.09,-155.56 126.88 3.71 31
11 07/03/2024 11:09:20 76.11, 11.82 53.14 07/03/2024 11:10:05 76.13, 11.85 53.17 3.03 45
12 07/03/2024 12:00:05 -76.10, 179.15 126.86 07/03/2024 12:01:02 -76.13, 179.10 126.84 3.38 57
13 07/03/2024 12:50:51 76.12, -13.61 53.16 07/03/2024 12:52:03 76.13, -13.66 53.17 1.54 72
14 07/03/2024 13:41:45 -76.52, 152.23 126.42 07/03/2024 13:42:52 -76.48, 154.93 126.49 70.29 67



Historial Predications of SNOs between FY3D and NOAA-19
